This is the latest recevied weather packets stored in our database for station/object F5MAP-5. If no packets are shown the sender has not sent any weather packets the latest 10 day(s).
| Time | Temp. | Humidity | Pressure | Rain* | Wind** | Luminosity | Snow |
|---|---|---|---|---|---|---|---|
| 1787518331 | 17.22° C | 70% | 1020.2 hPa | 0 mm | - | 0 W/m² | - |
| 1787517731 | 17.22° C | 69% | 1020.4 hPa | 0 mm | - | 0 W/m² | - |
| 1787517131 | 17.22° C | 69% | 1020.4 hPa | 0 mm | - | 0 W/m² | - |
| 1787516531 | 17.78° C | 68% | 1020.5 hPa | 0 mm | - | 0 W/m² | - |
| 1787515931 | 17.78° C | 68% | 1020.5 hPa | 0 mm | - | 0 W/m² | - |
| 1787515330 | 18.33° C | 67% | 1020.4 hPa | 0 mm | - | 0 W/m² | - |
| 1787514730 | 18.33° C | 67% | 1020.5 hPa | 0 mm | - | 0 W/m² | - |
| 1787514131 | 18.89° C | 65% | 1020.4 hPa | 0 mm | - | 0 W/m² | - |
| 1787513530 | 18.89° C | 63% | 1020.4 hPa | 0 mm | - | 0 W/m² | - |
| 1787512931 | 19.44° C | 61% | 1020.4 hPa | 0 mm | - | 0 W/m² | - |
| 1787512330 | 19.44° C | 59% | 1020.3 hPa | 0 mm | - | 0 W/m² | - |
| 1787511730 | 20° C | 59% | 1020.3 hPa | 0 mm | - | 0 W/m² | - |
| 1787511132 | 20.56° C | 58% | 1020.2 hPa | 0 mm | - | 0 W/m² | - |
| 1787510530 | 20.56° C | 58% | 1020.1 hPa | 0 mm | - | 0 W/m² | - |
| 1787509930 | 20.56° C | 57% | 1020 hPa | 0 mm | - | 0 W/m² | - |
| 1787508732 | 21.67° C | 55% | 1019.9 hPa | 0 mm | - | 7 W/m² | - |
| 1787508133 | 21.67° C | 53% | 1019.9 hPa | 0 mm | - | 14 W/m² | - |
| 1787507533 | 21.67° C | 51% | 1019.9 hPa | 0 mm | - | 19 W/m² | - |
| 1787506932 | 22.22° C | 51% | 1019.9 hPa | 0 mm | - | 32 W/m² | - |
| 1787506333 | 22.22° C | 50% | 1020 hPa | 0 mm | - | 39 W/m² | - |
| 1787505733 | 22.78° C | 49% | 1020 hPa | 0 mm | - | 49 W/m² | - |
| 1787505132 | 23.33° C | 49% | 1020 hPa | 0 mm | - | 49 W/m² | - |
| 1787504532 | 23.33° C | 49% | 1020.1 hPa | 0 mm | - | 70 W/m² | - |
| 1787503932 | 23.33° C | 50% | 1020.2 hPa | 0 mm | - | 74 W/m² | - |
| 1787503332 | 23.89° C | 49% | 1020.3 hPa | 0 mm | - | 70 W/m² | - |
* Rain latest hour (hover to see other rain measurements)
** Current wind speed in m/s (hover to see current wind gust speed)